When you browse on this site, cookies collect data to enhance your experience and personalize the content and advertising you see.
Visit our Privacy Policy to learn more. By continuing to use the site, you agree to this use of cookies and data.
  • In Austria
  • List of Countries
  • For 7 days
  • Water Temperature
  • Weather Map
  • News
  • Weather Widgets
  • user-avatar
    Login

    Hourly Weather Popayan

    Today, 23 September, Monday

    Time Temperature Precipitation Wind Pressure Humidity
    00:00 +15°C° 0.1 mm 1 mps 619 mmHg 89%
    01:00 +15°C° 0 mm 1 mps 618 mmHg 88%
    02:00 +15°C° 0 mm 1 mps 618 mmHg 88%
    03:00 +15°C° 0 mm 1 mps 618 mmHg 88%
    04:00 +15°C° 0 mm 1 mps 618 mmHg 88%
    05:00 +15°C° 0 mm 1 mps 619 mmHg 86%
    06:00 +16°C° 0 mm 1 mps 619 mmHg 85%
    07:00 +18°C° 0 mm 1 mps 620 mmHg 83%
    08:00 +20°C° 0 mm 1 mps 621 mmHg 73%
    09:00 +23°C° 0 mm 1 mps 622 mmHg 62%
    10:00 +26°C° 0 mm 1 mps 623 mmHg 52%
    11:00 +26°C° 0.2 mm 1 mps 623 mmHg 51%
    12:00 +27°C° 0.2 mm 2 mps 622 mmHg 50%
    13:00 +27°C° 0.2 mm 2 mps 622 mmHg 49%
    14:00 +26°C° 0.5 mm 2 mps 621 mmHg 55%
    15:00 +25°C° 0.5 mm 1 mps 620 mmHg 62%
    16:00 +24°C° 0.5 mm 1 mps 619 mmHg 68%
    17:00 +22°C° 0.3 mm 1 mps 619 mmHg 75%
    18:00 +20°C° 0.3 mm 1 mps 618 mmHg 83%
    19:00 +18°C° 0.3 mm 1 mps 618 mmHg 90%
    20:00 +16°C° 0 mm 1 mps 618 mmHg 89%
    21:00 +16°C° 0 mm 1 mps 618 mmHg 88%
    22:00 +15°C° 0 mm 1 mps 619 mmHg 86%
    23:00 +15°C° 0 mm 1 mps 618 mmHg 86%

    Tomorrow, 24 September, Tuesday

    Time Temperature Precipitation Wind Pressure Humidity
    00:00 +15°C° 0 mm 1 mps 618 mmHg 86%
    01:00 +15°C° 0 mm 1 mps 618 mmHg 86%
    02:00 +15°C° 0 mm 1 mps 618 mmHg 86%
    03:00 +15°C° 0 mm 1 mps 618 mmHg 86%
    04:00 +15°C° 0 mm 1 mps 618 mmHg 86%
    05:00 +16°C° 0.1 mm 1 mps 618 mmHg 86%
    06:00 +16°C° 0.1 mm 1 mps 619 mmHg 85%
    07:00 +18°C° 0.1 mm 1 mps 620 mmHg 84%
    08:00 +20°C° 0 mm 1 mps 621 mmHg 76%
    09:00 +22°C° 0 mm 1 mps 622 mmHg 68%
    10:00 +25°C° 0 mm 1 mps 623 mmHg 60%
    11:00 +25°C° 0.3 mm 1 mps 622 mmHg 61%
    12:00 +25°C° 0.3 mm 1 mps 622 mmHg 63%
    13:00 +25°C° 0.3 mm 2 mps 621 mmHg 64%
    14:00 +25°C° 0.3 mm 1 mps 620 mmHg 64%
    15:00 +25°C° 0.3 mm 1 mps 620 mmHg 64%
    16:00 +24°C° 0.3 mm 1 mps 620 mmHg 63%
    17:00 +22°C° 0.7 mm 1 mps 619 mmHg 73%
    18:00 +20°C° 0.7 mm 1 mps 619 mmHg 83%
    19:00 +18°C° 0.7 mm 1 mps 618 mmHg 93%
    20:00 +18°C° 0.5 mm 1 mps 619 mmHg 92%
    21:00 +16°C° 0.5 mm 1 mps 619 mmHg 92%
    22:00 +16°C° 0.5 mm 1 mps 619 mmHg 92%
    23:00 +16°C° 0.2 mm 1 mps 619 mmHg 92%

    Day after tomorrow, 25 September, Wednesday

    Time Temperature Precipitation Wind Pressure Humidity
    00:00 +15°C° 0.2 mm 1 mps 619 mmHg 91%
    01:00 +15°C° 0.2 mm 1 mps 618 mmHg 91%
    02:00 +15°C° 0.1 mm 1 mps 618 mmHg 90%
    03:00 +15°C° 0.1 mm 1 mps 618 mmHg 90%
    04:00 +15°C° 0.1 mm 1 mps 618 mmHg 90%
    05:00 +16°C° 0 mm 1 mps 619 mmHg 88%
    06:00 +16°C° 0 mm 1 mps 619 mmHg 87%
    07:00 +18°C° 0 mm 1 mps 620 mmHg 86%
    08:00 +20°C° 0.1 mm 1 mps 621 mmHg 78%
    09:00 +22°C° 0.1 mm 1 mps 622 mmHg 71%
    10:00 +25°C° 0.1 mm 1 mps 623 mmHg 64%
    11:00 +25°C° 0.8 mm 1 mps 622 mmHg 64%
    12:00 +26°C° 0.8 mm 1 mps 622 mmHg 64%
    13:00 +26°C° 0.8 mm 1 mps 621 mmHg 65%
    14:00 +25°C° 1.4 mm 1 mps 620 mmHg 71%
    15:00 +24°C° 1.4 mm 1 mps 620 mmHg 77%
    16:00 +23°C° 1.4 mm 1 mps 619 mmHg 83%
    17:00 +21°C° 1 mm 1 mps 619 mmHg 86%
    18:00 +20°C° 1 mm 1 mps 618 mmHg 90%
    19:00 +19°C° 1 mm 1 mps 618 mmHg 94%
    20:00 +18°C° 0.5 mm 1 mps 619 mmHg 93%
    21:00 +18°C° 0.5 mm 1 mps 619 mmHg 93%
    22:00 +18°C° 0.5 mm 1 mps 620 mmHg 92%
    23:00 +16°C° 0 mm 1 mps 619 mmHg 92%

    26 September, Thursday

    Time Temperature Precipitation Wind Pressure Humidity
    00:00 +16°C° 0 mm 1 mps 619 mmHg 92%
    01:00 +16°C° 0 mm 1 mps 618 mmHg 92%
    02:00 +16°C° 0 mm 1 mps 618 mmHg 91%
    03:00 +16°C° 0 mm 1 mps 618 mmHg 91%
    04:00 +16°C° 0 mm 1 mps 618 mmHg 90%
    05:00 +16°C° 0 mm 1 mps 618 mmHg 89%
    06:00 +18°C° 0 mm 1 mps 619 mmHg 87%
    07:00 +18°C° 0 mm 1 mps 620 mmHg 86%
    08:00 +20°C° 0 mm 1 mps 620 mmHg 78%
    09:00 +22°C° 0 mm 1 mps 621 mmHg 69%
    10:00 +25°C° 0 mm 1 mps 622 mmHg 61%
    11:00 +25°C° 0.4 mm 1 mps 622 mmHg 60%
    12:00 +26°C° 0.4 mm 1 mps 621 mmHg 60%
    13:00 +26°C° 0.4 mm 2 mps 621 mmHg 59%
    14:00 +25°C° 1 mm 2 mps 620 mmHg 65%
    15:00 +24°C° 1 mm 1 mps 619 mmHg 70%
    16:00 +23°C° 1 mm 1 mps 619 mmHg 76%
    17:00 +21°C° 0.7 mm 1 mps 618 mmHg 81%
    18:00 +20°C° 0.7 mm 1 mps 618 mmHg 85%
    19:00 +18°C° 0.7 mm 1 mps 618 mmHg 89%
    20:00 +16°C° 0.3 mm 1 mps 618 mmHg 89%
    21:00 +16°C° 0.3 mm 1 mps 618 mmHg 88%
    22:00 +15°C° 0.3 mm 1 mps 618 mmHg 88%
    23:00 +15°C° 0 mm 1 mps 618 mmHg 87%

    27 September, Friday

    Time Temperature Precipitation Wind Pressure Humidity
    00:00 +15°C° 0 mm 1 mps 618 mmHg 87%
    01:00 +15°C° 0 mm 1 mps 618 mmHg 86%
    02:00 +15°C° 0 mm 1 mps 617 mmHg 86%
    03:00 +15°C° 0 mm 1 mps 617 mmHg 86%
    04:00 +14°C° 0 mm 1 mps 617 mmHg 86%
    05:00 +15°C° 0 mm 1 mps 618 mmHg 84%
    06:00 +16°C° 0 mm 1 mps 619 mmHg 82%
    07:00 +18°C° 0 mm 1 mps 619 mmHg 80%
    08:00 +20°C° 0 mm 1 mps 620 mmHg 72%
    09:00 +23°C° 0 mm 1 mps 621 mmHg 65%
    10:00 +25°C° 0 mm 1 mps 623 mmHg 57%
    11:00 +26°C° 0.3 mm 1 mps 622 mmHg 56%
    12:00 +26°C° 0.3 mm 1 mps 621 mmHg 55%
    13:00 +27°C° 0.3 mm 1 mps 621 mmHg 54%
    14:00 +26°C° 1.1 mm 1 mps 620 mmHg 62%
    15:00 +24°C° 1.1 mm 1 mps 619 mmHg 70%
    16:00 +23°C° 1.1 mm 1 mps 618 mmHg 78%
    17:00 +21°C° 0.9 mm 1 mps 618 mmHg 83%
    18:00 +20°C° 0.9 mm 1 mps 618 mmHg 89%
    19:00 +18°C° 0.9 mm 1 mps 617 mmHg 94%
    20:00 +16°C° 0.3 mm 1 mps 618 mmHg 94%
    21:00 +16°C° 0.3 mm 1 mps 618 mmHg 93%
    22:00 +15°C° 0.3 mm 1 mps 618 mmHg 92%
    23:00 +15°C° 0.1 mm 1 mps 618 mmHg 92%

    28 September, Saturday

    Time Temperature Precipitation Wind Pressure Humidity
    00:00 +15°C° 0.1 mm 1 mps 618 mmHg 92%
    01:00 +15°C° 0.1 mm 1 mps 618 mmHg 92%
    02:00 +15°C° 0.1 mm 1 mps 617 mmHg 91%
    03:00 +15°C° 0.1 mm 1 mps 617 mmHg 91%
    04:00 +15°C° 0.1 mm 1 mps 617 mmHg 91%
    05:00 +15°C° 0 mm 1 mps 618 mmHg 89%
    06:00 +16°C° 0 mm 1 mps 618 mmHg 87%
    07:00 +16°C° 0 mm 0 mps 619 mmHg 85%
    08:00 +20°C° 0 mm 1 mps 620 mmHg 77%
    09:00 +23°C° 0 mm 1 mps 621 mmHg 69%
    10:00 +25°C° 0 mm 1 mps 622 mmHg 61%
    11:00 +25°C° 0.7 mm 1 mps 621 mmHg 65%
    12:00 +25°C° 0.7 mm 1 mps 620 mmHg 69%
    13:00 +25°C° 0.7 mm 1 mps 619 mmHg 73%
    14:00 +24°C° 1.9 mm 1 mps 619 mmHg 78%
    15:00 +23°C° 1.9 mm 1 mps 618 mmHg 82%
    16:00 +22°C° 1.9 mm 1 mps 617 mmHg 87%
    17:00 +21°C° 1.3 mm 1 mps 617 mmHg 90%
    18:00 +19°C° 1.3 mm 1 mps 617 mmHg 93%
    19:00 +18°C° 1.3 mm 1 mps 617 mmHg 96%
    20:00 +18°C° 0.3 mm 1 mps 617 mmHg 95%
    21:00 +16°C° 0.3 mm 1 mps 618 mmHg 95%
    22:00 +16°C° 0.3 mm 1 mps 618 mmHg 95%
    23:00 +15°C° 0.1 mm 0 mps 618 mmHg 95%
    Show more